| time (UTC) | temp C | wind direction | speed KPH | gust KPH | rain 1hr cm | rain 24hr cm | rain mn cm | humidity % | barometer mb |
| 20260507051513 | 8 | 281 | 3.2 | 8.0 | 0.00 | 4.11 | 0.86 | 94 | 1015.1 |
| 20260507050027 | 8 | 298 | 0.0 | 3.2 | 0.00 | 4.11 | 0.86 | 94 | 1014.9 |
| 20260507044526 | 8 | 299 | 0.0 | 3.2 | 0.00 | 4.11 | 0.86 | 93 | 1014.9 |
| 20260507043010 | 8 | 302 | 0.0 | 6.4 | 0.00 | 4.11 | 0.86 | 93 | 1014.9 |
| 20260507041509 | 8 | 9 | 3.2 | 6.4 | 0.00 | 4.11 | 0.86 | 93 | 1014.9 |
| 20260507040010 | 8 | 38 | 1.6 | 4.8 | 0.00 | 4.14 | 0.86 | 93 | 1015.0 |
| 20260507034507 | 8 | 73 | 0.0 | 4.8 | 0.00 | 4.14 | 0.86 | 93 | 1014.9 |
| 20260507033009 | 8 | 77 | 0.0 | 3.2 | 0.03 | 4.14 | 0.86 | 93 | 1014.9 |
| 20260507031504 | 8 | 325 | 1.6 | 4.8 | 0.05 | 4.14 | 0.86 | 93 | 1014.9 |
| 20260507030002 | 8 | 94 | 0.0 | 6.4 | 0.08 | 4.19 | 0.86 | 94 | 1014.9 |
| 20260507024501 | 8 | 245 | 3.2 | 8.0 | 0.08 | 4.19 | 0.86 | 94 | 1014.6 |
| 20260507023100 | 8 | 312 | 1.6 | 4.8 | 0.08 | 4.17 | 0.84 | 94 | 1015.0 |
| 20260507021617 | 8 | 348 | 1.6 | 4.8 | 0.08 | 4.14 | 0.81 | 94 | 1014.8 |
| 20260507020107 | 8 | 99 | 1.6 | 6.4 | 0.05 | 4.11 | 0.79 | 94 | 1014.9 |
| 20260507014615 | 8 | 279 | 0.0 | 4.8 | 0.05 | 4.19 | 0.79 | 94 | 1014.6 |
| 20260507013058 | 8 | 63 | 0.0 | 4.8 | 0.05 | 4.17 | 0.76 | 94 | 1014.5 |
| 20260507011558 | 8 | 355 | 0.0 | 3.2 | 0.05 | 4.14 | 0.71 | 94 | 1014.6 |
| 20260507010109 | 8 | 313 | 1.6 | 3.2 | 0.13 | 4.14 | 0.71 | 94 | 1014.7 |
| 20260507004555 | 8 | 281 | 1.6 | 6.4 | 0.15 | 4.27 | 0.71 | 94 | 1014.6 |
| 20260507003055 | 8 | 75 | 1.6 | 12.9 | 0.23 | 4.24 | 0.71 | 94 | 1014.8 |
| 20260507001558 | 9 | 292 | 4.8 | 6.4 | 0.28 | 4.22 | 0.69 | 94 | 1014.8 |
| 20260507000053 | 9 | 161 | 3.2 | 12.9 | 0.25 | 4.14 | 0.61 | 94 | 1014.9 |
| 20260506234553 | 9 | 254 | 1.6 | 14.5 | 0.30 | 4.37 | 0.58 | 92 | 1014.7 |
| 20260506233053 | 9 | 296 | 3.2 | 6.4 | 0.28 | 4.27 | 0.48 | 93 | 1015.3 |
| 20260506231546 | 9 | 99 | 0.0 | 3.2 | 0.41 | 4.19 | 0.41 | 93 | 1015.1 |
| 20260506230044 | 9 | 155 | 0.0 | 1.6 | 0.36 | 4.14 | 0.36 | 93 | 1014.7 |
| 20260506224542 | 9 | 180 | 1.6 | 6.4 | 0.28 | 4.14 | 0.28 | 92 | 1014.5 |
| 20260506223041 | 9 | 317 | 3.2 | 8.0 | 0.20 | 4.06 | 0.20 | 91 | 1014.3 |
| 20260506221539 | 9 | 27 | 3.2 | 6.4 | 0.00 | 3.86 | 0.00 | 92 | 1014.5 |
| 20260506220039 | 9 | 82 | 4.8 | 8.0 | 0.00 | 3.86 | 0.00 | 91 | 1014.2 |
| 20260506214536 | 9 | 67 | 0.0 | 4.8 | 0.00 | 3.86 | 3.86 | 91 | 1013.9 |
| 20260506213036 | 9 | 320 | 1.6 | 6.4 | 0.00 | 3.86 | 3.86 | 90 | 1013.8 |
| 20260506211535 | 10 | 250 | 1.6 | 9.7 | 0.00 | 3.86 | 3.86 | 89 | 1013.9 |
| 20260506210034 | 10 | 273 | 8.0 | 19.3 | 0.08 | 3.86 | 3.86 | 88 | 1013.9 |
| 20260506204534 | 10 | 314 | 3.2 | 8.0 | 0.28 | 3.86 | 3.86 | 89 | 1014.0 |
| 20260506203033 | 10 | 5 | 4.8 | 22.5 | 0.38 | 3.86 | 3.86 | 90 | 1013.7 |
| 20260506201543 | 9 | 244 | 14.5 | 33.8 | 0.46 | 3.86 | 3.86 | 93 | 1013.5 |
| 20260506200031 | 9 | 277 | 9.7 | 16.1 | 0.46 | 3.78 | 3.78 | 93 | 1013.4 |
| 20260506194529 | 10 | 101 | 0.0 | 11.3 | 0.28 | 3.58 | 3.58 | 92 | 1014.6 |
| 20260506193025 | 10 | 76 | 0.0 | 11.3 | 0.18 | 3.48 | 3.48 | 91 | 1013.9 |
| 20260506191522 | 10 | 82 | 0.0 | 9.7 | 0.13 | 3.40 | 3.40 | 90 | 1013.2 |
| 20260506190021 | 10 | 271 | 8.0 | 16.1 | 0.05 | 3.33 | 3.33 | 88 | 1012.7 |
| 20260506184519 | 10 | 281 | 3.2 | 14.5 | 0.05 | 3.30 | 3.30 | 88 | 1012.2 |
| 20260506183018 | 10 | 274 | 6.4 | 20.9 | 0.05 | 3.30 | 3.30 | 87 | 1012.0 |
| 20260506181518 | 10 | 267 | 8.0 | 17.7 | 0.03 | 3.28 | 3.28 | 86 | 1011.8 |
| 20260506180017 | 10 | 315 | 3.2 | 12.9 | 0.03 | 3.28 | 3.28 | 85 | 1012.0 |
| 20260506174513 | 11 | 313 | 8.0 | 19.3 | 0.00 | 3.25 | 3.25 | 83 | 1011.7 |
| 20260506173013 | 11 | 256 | 6.4 | 16.1 | 0.00 | 3.25 | 3.25 | 83 | 1011.7 |
| 20260506171513 | 11 | 304 | 8.0 | 19.3 | 0.00 | 3.25 | 3.25 | 83 | 1011.2 |
| 20260506170013 | 11 | 295 | 12.9 | 24.1 | 0.05 | 3.25 | 3.25 | 86 | 1011.3 |
| 20260506164510 | 11 | 261 | 12.9 | 24.1 | 0.20 | 3.25 | 3.25 | 88 | 1011.5 |
| 20260506163015 | 11 | 287 | 6.4 | 20.9 | 0.48 | 3.25 | 3.25 | 86 | 1011.0 |
| 20260506161508 | 11 | 246 | 6.4 | 17.7 | 0.79 | 3.25 | 3.25 | 86 | 1010.8 |
| 20260506160012 | 11 | 281 | 16.1 | 27.4 | 0.81 | 3.20 | 3.20 | 89 | 1010.7 |
| 20260506154504 | 11 | 286 | 11.3 | 17.7 | 0.66 | 3.02 | 3.02 | 89 | 1011.4 |
| 20260506153059 | 11 | 360 | 6.4 | 14.5 | 0.48 | 2.77 | 2.77 | 90 | 1011.8 |
| 20260506151559 | 11 | 325 | 1.6 | 6.4 | 0.41 | 2.46 | 2.46 | 90 | 1011.9 |
| 20260506150057 | 11 | 333 | 4.8 | 16.1 | 0.56 | 2.39 | 2.39 | 90 | 1011.5 |
| 20260506144600 | 11 | 310 | 6.4 | 14.5 | 0.58 | 2.36 | 2.36 | 92 | 1010.9 |
| 20260506143055 | 12 | 291 | 4.8 | 8.0 | 0.48 | 2.26 | 2.26 | 91 | 1010.8 |
| 20260506141557 | 12 | 313 | 3.2 | 6.4 | 0.28 | 2.06 | 2.06 | 90 | 1010.9 |
| 20260506140101 | 12 | 210 | 1.6 | 9.7 | 0.05 | 1.83 | 1.83 | 90 | 1010.9 |
| 20260506134551 | 12 | 277 | 1.6 | 11.3 | 0.00 | 1.78 | 1.78 | 90 | 1010.3 |
| 20260506133051 | 12 | 276 | 1.6 | 8.0 | 0.00 | 1.78 | 1.78 | 87 | 1010.2 |
| 20260506131550 | 12 | 288 | 1.6 | 14.5 | 0.03 | 1.78 | 1.78 | 89 | 1010.0 |
| 20260506130053 | 13 | 288 | 3.2 | 6.4 | 0.03 | 1.78 | 1.78 | 88 | 1009.8 |
| 20260506124547 | 13 | 230 | 1.6 | 4.8 | 0.03 | 1.78 | 1.78 | 89 | 1009.9 |
| 20260506123046 | 13 | 5 | 0.0 | 4.8 | 0.03 | 1.78 | 1.78 | 87 | 1010.1 |
| 20260506121545 | 13 | 76 | 1.6 | 4.8 | 0.00 | 1.75 | 1.75 | 89 | 1009.9 |
| 20260506120050 | 12 | 302 | 1.6 | 8.0 | 0.00 | 1.75 | 1.75 | 89 | 1009.7 |
| 20260506114550 | 13 | 268 | 9.7 | 14.5 | 0.00 | 1.75 | 1.75 | 91 | 1009.9 |
| 20260506113043 | 13 | 330 | 3.2 | 12.9 | 0.03 | 1.75 | 1.75 | 91 | 1009.9 |
| 20260506111543 | 13 | 266 | 1.6 | 8.0 | 0.05 | 1.75 | 1.75 | 89 | 1010.3 |
| 20260506110038 | 12 | 268 | 1.6 | 6.4 | 0.10 | 1.75 | 1.75 | 90 | 1010.3 |
| 20260506104541 | 12 | 84 | 0.0 | 0.0 | 0.28 | 1.75 | 1.75 | 91 | 1010.5 |
| 20260506103035 | 12 | 69 | 0.0 | 6.4 | 0.36 | 1.73 | 1.73 | 93 | 1010.5 |
| 20260506101537 | 12 | 42 | 0.0 | 4.8 | 0.46 | 1.70 | 1.70 | 94 | 1010.6 |
| 20260506100038 | 11 | 62 | 3.2 | 9.7 | 0.43 | 1.63 | 1.63 | 94 | 1010.9 |
| 20260506094533 | 12 | 103 | 4.8 | 9.7 | 0.28 | 1.52 | 1.45 | 94 | 1010.5 |
| 20260506093052 | 12 | 268 | 0.0 | 4.8 | 0.18 | 1.42 | 1.37 | 94 | 1010.2 |
| 20260506091533 | 12 | 198 | 1.6 | 3.2 | 0.08 | 1.30 | 1.24 | 94 | 1009.9 |
| 20260506090034 | 12 | 144 | 1.6 | 3.2 | 0.08 | 1.24 | 1.19 | 94 | 1009.6 |
| 20260506084530 | 12 | 68 | 1.6 | 4.8 | 0.15 | 1.52 | 1.19 | 94 | 1009.9 |
| 20260506083025 | 12 | 61 | 0.0 | 3.2 | 0.18 | 1.52 | 1.19 | 94 | 1010.0 |
| 20260506081525 | 12 | 61 | 0.0 | 1.6 | 0.18 | 1.50 | 1.17 | 94 | 1010.1 |
| 20260506073021 | 11 | 68 | 0.0 | 3.2 | 0.08 | 1.42 | 1.02 | 95 | 1010.3 |
| 20260506071519 | 11 | 57 | 0.0 | 4.8 | 0.08 | 1.42 | 0.99 | 95 | 1010.5 |
| 20260506061517 | 11 | 163 | 0.0 | 0.0 | 0.23 | 1.35 | 0.91 | 95 | 1010.7 |